TimeCET,TemperatureF,Dew PointF,Humidity,Sea Level PressureIn,VisibilityMPH,Wind Direction,Wind SpeedMPH,Gust SpeedMPH,PrecipitationIn,Events,Conditions,WindDirDegrees,DateUTC
12:00 AM,39.2,37.4,93,30.24,3.1,SE,3.5,-,N/A,,Overcast,130,2012-11-14 23:00:00
12:30 AM,39.2,37.4,93,30.27,3.1,SSE,3.5,-,N/A,,Overcast,160,2012-11-14 23:30:00
1:00 AM,39.2,37.4,93,30.24,3.1,Variable,2.3,-,N/A,,Overcast,0,2012-11-15 00:00:00
1:30 AM,39.2,37.4,93,30.24,3.1,Calm,Calm,-,N/A,,Overcast,0,2012-11-15 00:30:00
2:00 AM,39.2,37.4,93,30.24,3.7,Calm,Calm,-,N/A,,Overcast,0,2012-11-15 01:00:00
2:30 AM,39.2,37.4,93,30.24,3.1,Calm,Calm,-,N/A,,Overcast,0,2012-11-15 01:30:00
3:00 AM,39.2,37.4,93,30.24,3.1,Variable,2.3,-,N/A,,Overcast,0,2012-11-15 02:00:00
3:30 AM,39.2,37.4,93,30.24,3.1,ENE,3.5,-,N/A,,Overcast,60,2012-11-15 02:30:00
4:00 AM,39.2,37.4,93,30.21,3.1,Variable,2.3,-,N/A,,Overcast,0,2012-11-15 03:00:00
4:30 AM,39.2,37.4,93,30.21,3.7,Variable,1.2,-,N/A,,Overcast,0,2012-11-15 03:30:00
5:00 AM,41.0,37.4,87,30.21,3.7,Variable,2.3,-,N/A,,Overcast,0,2012-11-15 04:00:00
5:30 AM,41.0,37.4,87,30.21,3.7,East,3.5,-,N/A,,Overcast,100,2012-11-15 04:30:00
6:00 AM,41.0,37.4,87,30.21,3.7,Variable,3.5,-,N/A,,Overcast,0,2012-11-15 05:00:00
6:30 AM,41.0,37.4,87,30.21,4.3,Variable,2.3,-,N/A,,Overcast,0,2012-11-15 05:30:00
7:00 AM,41.0,37.4,87,30.21,3.7,Variable,2.3,-,N/A,,Overcast,0,2012-11-15 06:00:00
7:30 AM,41.0,39.2,93,30.21,3.7,ENE,2.3,-,N/A,,Overcast,60,2012-11-15 06:30:00
8:00 AM,41.0,37.4,87,30.21,4.3,ENE,4.6,-,N/A,,Overcast,70,2012-11-15 07:00:00
8:30 AM,41.0,39.2,93,30.24,4.3,ESE,4.6,-,N/A,,Overcast,110,2012-11-15 07:30:00
9:00 AM,41.0,39.2,93,30.24,4.3,East,3.5,-,N/A,,Overcast,100,2012-11-15 08:00:00
9:30 AM,41.0,39.2,93,30.24,4.3,Variable,3.5,-,N/A,,Overcast,0,2012-11-15 08:30:00
10:00 AM,41.0,39.2,93,30.24,5.0,East,4.6,-,N/A,,Overcast,80,2012-11-15 09:00:00
10:30 AM,42.8,39.2,87,30.24,4.3,SE,3.5,-,N/A,,Overcast,130,2012-11-15 09:30:00
11:00 AM,42.8,37.4,81,30.24,4.3,Calm,Calm,-,N/A,,Overcast,0,2012-11-15 10:00:00
11:30 AM,42.8,37.4,81,30.21,4.3,Variable,1.2,-,N/A,,Overcast,0,2012-11-15 10:30:00
12:00 PM,42.8,39.2,87,30.21,3.7,ESE,3.5,-,N/A,,Overcast,110,2012-11-15 11:00:00
12:30 PM,42.8,39.2,87,30.21,4.3,Variable,2.3,-,N/A,,Overcast,0,2012-11-15 11:30:00
1:00 PM,42.8,39.2,87,30.18,4.3,Variable,1.2,-,N/A,,Overcast,0,2012-11-15 12:00:00
1:30 PM,42.8,39.2,87,30.18,4.3,Calm,Calm,-,N/A,,Overcast,0,2012-11-15 12:30:00
2:00 PM,44.6,39.2,81,30.18,3.7,Variable,2.3,-,N/A,,Overcast,0,2012-11-15 13:00:00
2:30 PM,44.6,39.2,81,30.18,3.7,Variable,2.3,-,N/A,,Overcast,0,2012-11-15 13:30:00
3:00 PM,44.6,39.2,81,30.18,3.7,Variable,2.3,-,N/A,,Overcast,0,2012-11-15 14:00:00
3:30 PM,44.6,39.2,81,30.15,4.3,ENE,3.5,-,N/A,,Overcast,70,2012-11-15 14:30:00
4:00 PM,42.8,39.2,87,30.15,4.3,ENE,3.5,-,N/A,,Overcast,70,2012-11-15 15:00:00
4:30 PM,42.8,39.2,87,30.15,4.3,East,3.5,-,N/A,,Overcast,90,2012-11-15 15:30:00
5:00 PM,42.8,39.2,87,30.15,4.3,ENE,4.6,-,N/A,,Overcast,70,2012-11-15 16:00:00
5:30 PM,42.8,37.4,81,30.15,4.3,ENE,5.8,-,N/A,,Overcast,60,2012-11-15 16:30:00
6:00 PM,41.0,37.4,87,30.15,3.7,ENE,5.8,-,N/A,,Overcast,70,2012-11-15 17:00:00
6:30 PM,41.0,37.4,87,30.15,3.7,ENE,5.8,-,N/A,,Overcast,60,2012-11-15 17:30:00
7:00 PM,41.0,37.4,87,30.15,3.7,ENE,5.8,-,N/A,,Overcast,70,2012-11-15 18:00:00
7:30 PM,41.0,37.4,87,30.15,3.7,ENE,5.8,-,N/A,,Overcast,70,2012-11-15 18:30:00
8:00 PM,41.0,37.4,87,30.15,3.7,East,4.6,-,N/A,,Overcast,90,2012-11-15 19:00:00
8:30 PM,41.0,37.4,87,30.15,3.7,East,4.6,-,N/A,,Overcast,90,2012-11-15 19:30:00
9:00 PM,41.0,37.4,87,30.15,3.7,East,4.6,-,N/A,,Overcast,100,2012-11-15 20:00:00
9:30 PM,41.0,37.4,87,30.15,3.7,ESE,5.8,-,N/A,,Overcast,110,2012-11-15 20:30:00
10:00 PM,41.0,37.4,87,30.15,3.1,ESE,4.6,-,N/A,,Overcast,120,2012-11-15 21:00:00
10:30 PM,41.0,37.4,87,30.15,3.1,SE,4.6,-,N/A,,Overcast,130,2012-11-15 21:30:00
11:00 PM,41.0,37.4,87,30.15,3.1,SE,5.8,-,N/A,,Overcast,130,2012-11-15 22:00:00
11:30 PM,41.0,37.4,87,30.12,3.1,SE,5.8,-,N/A,,Overcast,130,2012-11-15 22:30:00